N301SR LOWW-LIMC

Flight info

Callsign N301SR
Flight time 1h 4m
Altitude 34000
Route OSPEN DCT ABRUK DCT SETAL DCT DETSA/N0443F330 DCT RENTA DCT ATPED DCT LUSIL DCT EVRIP
Aircraft B737/M-DE2GRSWYZ/LB1

Departure

Time 2026-04-20 20:11
Airport Vienna International Airport (LOWW)

Arrival

Time 2026-04-20 21:15
Airport Milan Malpensa International Airport (LIMC)
Time Latitude Longitude Altitude Speed Heading
2026-04-20 19:51 48.12376 16.57026 582 ft 0 kts 26°
2026-04-20 20:01 48.12375 16.57026 609 ft 1 kts 26°
2026-04-20 20:01 48.12363 16.57017 617 ft 3 kts 28°
2026-04-20 20:01 48.12346 16.57002 625 ft 3 kts 32°
2026-04-20 20:02 48.12329 16.56986 617 ft 3 kts 37°
2026-04-20 20:02 48.12314 16.56966 621 ft 3 kts 47°
2026-04-20 20:02 48.12302 16.56943 622 ft 3 kts 74°
2026-04-20 20:02 48.12301 16.56923 625 ft 1 kts 115°
2026-04-20 20:03 48.12301 16.56922 625 ft 1 kts 116°
2026-04-20 20:05 48.12291 16.56953 613 ft 8 kts 116°
2026-04-20 20:05 48.12260 16.57049 616 ft 12 kts 116°
2026-04-20 20:06 48.12217 16.57182 616 ft 15 kts 116°
2026-04-20 20:06 48.12179 16.57297 611 ft 10 kts 121°
2026-04-20 20:06 48.12117 16.57341 609 ft 11 kts 164°
2026-04-20 20:06 48.12026 16.57380 617 ft 15 kts 164°
2026-04-20 20:07 48.11921 16.57424 614 ft 16 kts 165°
2026-04-20 20:07 48.11818 16.57467 618 ft 15 kts 164°
2026-04-20 20:07 48.11721 16.57509 612 ft 14 kts 164°
2026-04-20 20:07 48.11637 16.57544 617 ft 10 kts 164°
2026-04-20 20:08 48.11575 16.57531 614 ft 9 kts 209°
2026-04-20 20:08 48.11515 16.57481 609 ft 11 kts 209°
2026-04-20 20:08 48.11444 16.57426 622 ft 11 kts 205°
2026-04-20 20:08 48.11375 16.57377 615 ft 11 kts 206°
2026-04-20 20:09 48.11308 16.57328 609 ft 10 kts 206°
2026-04-20 20:09 48.11243 16.57281 609 ft 10 kts 206°
2026-04-20 20:09 48.11180 16.57236 619 ft 10 kts 206°
2026-04-20 20:09 48.11120 16.57191 614 ft 10 kts 206°
2026-04-20 20:10 48.11065 16.57135 619 ft 10 kts 241°
2026-04-20 20:10 48.11084 16.57013 618 ft 25 kts 295°
2026-04-20 20:10 48.11304 16.56339 614 ft 117 kts 296°
2026-04-20 20:10 48.11772 16.54908 800 ft 173 kts 297°
2026-04-20 20:11 48.12181 16.53385 2290 ft 147 kts 286°
2026-04-20 20:11 48.12156 16.51817 3045 ft 166 kts 261°
2026-04-20 20:11 48.11583 16.50082 3365 ft 208 kts 232°
2026-04-20 20:11 48.10369 16.48760 3932 ft 226 kts 207°
2026-04-20 20:12 48.08913 16.47815 4618 ft 230 kts 206°
2026-04-20 20:12 48.07469 16.46804 5128 ft 229 kts 208°
2026-04-20 20:12 48.06142 16.45417 5795 ft 245 kts 224°
2026-04-20 20:13 48.03419 16.41708 7388 ft 270 kts 225°
2026-04-20 20:13 48.02019 16.39833 8593 ft 270 kts 225°
2026-04-20 20:13 48.00610 16.37970 9778 ft 271 kts 225°
2026-04-20 20:13 47.99193 16.36110 10673 ft 282 kts 225°
2026-04-20 20:14 47.97634 16.34064 10965 ft 313 kts 225°
2026-04-20 20:14 47.95953 16.31855 11628 ft 327 kts 226°
2026-04-20 20:14 47.94358 16.29453 12559 ft 331 kts 231°
2026-04-20 20:14 47.92786 16.26835 13290 ft 344 kts 232°
2026-04-20 20:15 47.91200 16.24119 14165 ft 351 kts 232°
2026-04-20 20:15 47.89583 16.21353 15170 ft 353 kts 232°
2026-04-20 20:15 47.87950 16.18581 16196 ft 356 kts 232°
2026-04-20 20:15 47.86298 16.15799 17180 ft 360 kts 232°
2026-04-20 20:16 47.84651 16.13021 18141 ft 362 kts 234°
2026-04-20 20:16 47.83288 16.09971 19445 ft 348 kts 245°
2026-04-20 20:16 47.82327 16.06691 20513 ft 344 kts 253°
2026-04-20 20:16 47.81498 16.03331 21423 ft 347 kts 252°
2026-04-20 20:17 47.80670 15.99936 22286 ft 351 kts 253°
2026-04-20 20:17 47.79832 15.96512 23138 ft 354 kts 253°
2026-04-20 20:17 47.78982 15.93054 23948 ft 356 kts 253°
2026-04-20 20:17 47.78132 15.89621 24645 ft 358 kts 254°
2026-04-20 20:18 47.77263 15.86126 25369 ft 361 kts 254°
2026-04-20 20:18 47.76385 15.82610 25978 ft 364 kts 254°
2026-04-20 20:18 47.75498 15.79068 26658 ft 366 kts 255°
2026-04-20 20:18 47.74604 15.75509 27357 ft 368 kts 255°
2026-04-20 20:19 47.73703 15.71932 27980 ft 370 kts 255°
2026-04-20 20:19 47.72796 15.68331 28527 ft 374 kts 255°
2026-04-20 20:19 47.71889 15.64737 29102 ft 377 kts 255°
2026-04-20 20:19 47.70960 15.61068 29633 ft 380 kts 255°
2026-04-20 20:20 47.70025 15.57381 30140 ft 382 kts 255°
2026-04-20 20:20 47.69082 15.53667 30536 ft 385 kts 255°
2026-04-20 20:20 47.68134 15.49941 30946 ft 387 kts 255°
2026-04-20 20:20 47.67180 15.46202 31506 ft 386 kts 255°
2026-04-20 20:21 47.66229 15.42480 31999 ft 386 kts 255°
2026-04-20 20:21 47.65274 15.38745 32419 ft 388 kts 255°
2026-04-20 20:21 47.64326 15.35044 32863 ft 388 kts 255°
2026-04-20 20:21 47.63366 15.31304 33310 ft 388 kts 255°
2026-04-20 20:22 47.62397 15.27530 33657 ft 390 kts 255°
2026-04-20 20:22 47.61424 15.23749 33979 ft 393 kts 254°
2026-04-20 20:22 47.59477 15.16196 34046 ft 395 kts 254°
2026-04-20 20:23 47.57518 15.08640 34040 ft 390 kts 254°
2026-04-20 20:23 47.55578 15.01175 34042 ft 388 kts 254°
2026-04-20 20:24 47.53637 14.93720 34050 ft 388 kts 254°
2026-04-20 20:24 47.51732 14.86421 34040 ft 390 kts 254°
2026-04-20 20:25 47.49780 14.78972 34057 ft 390 kts 254°
2026-04-20 20:25 47.47808 14.71477 34045 ft 391 kts 254°
2026-04-20 20:26 47.45830 14.63978 34054 ft 391 kts 253°
2026-04-20 20:26 47.43856 14.56520 34050 ft 392 kts 253°
2026-04-20 20:27 47.41866 14.49026 34059 ft 392 kts 253°
2026-04-20 20:27 47.39868 14.41525 34060 ft 393 kts 253°
2026-04-20 20:28 47.37862 14.34019 34067 ft 392 kts 253°
2026-04-20 20:28 47.35848 14.26507 34072 ft 393 kts 253°
2026-04-20 20:29 47.33837 14.19030 34069 ft 394 kts 253°
2026-04-20 20:29 47.31809 14.11514 34072 ft 394 kts 253°
2026-04-20 20:30 47.29792 14.04061 34053 ft 394 kts 253°
2026-04-20 20:30 47.27758 13.96568 34068 ft 393 kts 253°
2026-04-20 20:31 47.25719 13.89085 34086 ft 393 kts 253°
2026-04-20 20:31 47.23674 13.81601 34067 ft 394 kts 253°
2026-04-20 20:32 47.21619 13.74101 34052 ft 395 kts 252°
2026-04-20 20:32 47.19556 13.66598 34056 ft 396 kts 252°
2026-04-20 20:33 47.17497 13.59136 34052 ft 397 kts 252°
2026-04-20 20:33 47.15415 13.51609 34051 ft 397 kts 252°
2026-04-20 20:34 47.13326 13.44087 34045 ft 397 kts 252°
2026-04-20 20:34 47.11232 13.36565 34046 ft 398 kts 252°
2026-04-20 20:35 47.09144 13.29089 34040 ft 399 kts 252°
2026-04-20 20:35 47.07033 13.21557 34043 ft 399 kts 252°
2026-04-20 20:36 47.04916 13.14021 34041 ft 400 kts 252°
2026-04-20 20:36 47.02800 13.06517 34038 ft 401 kts 252°
2026-04-20 20:37 47.00665 12.98970 34034 ft 400 kts 252°
2026-04-20 20:37 46.98522 12.91415 34021 ft 401 kts 251°
2026-04-20 20:38 46.96374 12.83868 34025 ft 401 kts 251°
2026-04-20 20:38 46.94218 12.76316 34019 ft 402 kts 251°
2026-04-20 20:39 46.92062 12.68784 34032 ft 403 kts 251°
2026-04-20 20:39 46.89882 12.61193 34014 ft 404 kts 251°
2026-04-20 20:40 46.87717 12.53686 34034 ft 403 kts 251°
2026-04-20 20:40 46.85527 12.46101 34016 ft 405 kts 251°
2026-04-20 20:41 46.83330 12.38520 34019 ft 405 kts 251°
2026-04-20 20:41 46.81140 12.30986 34011 ft 405 kts 251°
2026-04-20 20:42 46.80024 12.27214 33891 ft 407 kts 250°
2026-04-20 20:42 46.78805 12.23470 33594 ft 407 kts 248°
2026-04-20 20:42 46.77541 12.19791 33329 ft 403 kts 248°
2026-04-20 20:42 46.76268 12.16152 33091 ft 403 kts 248°
2026-04-20 20:43 46.73708 12.08823 33023 ft 405 kts 248°
2026-04-20 20:43 46.71172 12.01512 33013 ft 404 kts 248°
2026-04-20 20:44 46.68659 11.94248 32993 ft 403 kts 248°
2026-04-20 20:44 46.66134 11.86961 32981 ft 402 kts 248°
2026-04-20 20:45 46.63681 11.79894 32970 ft 400 kts 248°
2026-04-20 20:45 46.61162 11.72655 32947 ft 401 kts 248°
2026-04-20 20:46 46.58631 11.65403 32941 ft 401 kts 248°
2026-04-20 20:46 46.56097 11.58166 32942 ft 403 kts 248°
2026-04-20 20:47 46.53563 11.50947 32926 ft 403 kts 248°
2026-04-20 20:47 46.51004 11.43677 32910 ft 403 kts 248°
2026-04-20 20:48 46.48880 11.37658 32915 ft 403 kts 248°
2026-04-20 20:48 46.46310 11.30395 32907 ft 404 kts 248°
2026-04-20 20:49 46.43732 11.23127 32901 ft 404 kts 248°
2026-04-20 20:49 46.41170 11.15926 33012 ft 405 kts 248°
2026-04-20 20:50 46.38582 11.08666 33026 ft 405 kts 248°
2026-04-20 20:50 46.36000 11.01448 33008 ft 404 kts 248°
2026-04-20 20:51 46.33416 10.94236 33016 ft 403 kts 248°
2026-04-20 20:51 46.30823 10.87024 33014 ft 403 kts 248°
2026-04-20 20:52 46.28293 10.79842 33007 ft 401 kts 248°
2026-04-20 20:52 46.25791 10.72630 33005 ft 400 kts 248°
2026-04-20 20:53 46.23290 10.65458 32988 ft 399 kts 248°
2026-04-20 20:53 46.20802 10.58357 32978 ft 397 kts 248°
2026-04-20 20:54 46.18306 10.51251 32989 ft 396 kts 248°
2026-04-20 20:54 46.15799 10.44134 32977 ft 398 kts 248°
2026-04-20 20:55 46.14558 10.40615 32870 ft 399 kts 248°
2026-04-20 20:55 46.13286 10.37018 32576 ft 400 kts 248°
2026-04-20 20:55 46.12024 10.33455 32325 ft 398 kts 248°
2026-04-20 20:55 46.10764 10.29895 32029 ft 399 kts 248°
2026-04-20 20:56 46.09495 10.26315 31778 ft 401 kts 248°
2026-04-20 20:56 46.08224 10.22730 31512 ft 402 kts 248°
2026-04-20 20:56 46.06976 10.19215 31285 ft 402 kts 248°
2026-04-20 20:56 46.05701 10.15634 31041 ft 402 kts 248°
2026-04-20 20:57 46.04435 10.12088 30783 ft 395 kts 248°
2026-04-20 20:57 46.03207 10.08562 30526 ft 390 kts 249°
2026-04-20 20:57 46.02030 10.05065 29994 ft 386 kts 250°
2026-04-20 20:57 46.00859 10.01673 29477 ft 380 kts 246°
2026-04-20 20:58 45.99395 9.98528 28723 ft 381 kts 238°
2026-04-20 20:58 45.97716 9.95545 27757 ft 385 kts 237°
2026-04-20 20:58 45.96003 9.92582 26953 ft 384 kts 236°
2026-04-20 20:58 45.94296 9.89647 26305 ft 380 kts 236°
2026-04-20 20:59 45.92609 9.86735 25491 ft 379 kts 236°
2026-04-20 20:59 45.90933 9.83828 24799 ft 375 kts 236°
2026-04-20 20:59 45.89280 9.80954 24171 ft 371 kts 236°
2026-04-20 20:59 45.87668 9.78140 23468 ft 369 kts 236°
2026-04-20 21:00 45.86037 9.75292 22707 ft 367 kts 236°
2026-04-20 21:00 45.84421 9.72469 22043 ft 364 kts 236°
2026-04-20 21:00 45.82812 9.69658 21346 ft 361 kts 236°
2026-04-20 21:00 45.81238 9.66914 20791 ft 357 kts 236°
2026-04-20 21:01 45.79670 9.64183 20147 ft 352 kts 236°
2026-04-20 21:01 45.78124 9.61491 19450 ft 349 kts 236°
2026-04-20 21:01 45.76579 9.58801 18801 ft 347 kts 235°
2026-04-20 21:01 45.75043 9.56131 18176 ft 345 kts 235°
2026-04-20 21:02 45.73519 9.53485 17492 ft 343 kts 235°
2026-04-20 21:02 45.72007 9.50860 16838 ft 340 kts 234°
2026-04-20 21:02 45.70527 9.48296 16209 ft 337 kts 234°
2026-04-20 21:02 45.69036 9.45715 15637 ft 335 kts 234°
2026-04-20 21:03 45.67556 9.43153 15027 ft 333 kts 234°
2026-04-20 21:03 45.66078 9.40598 14414 ft 332 kts 233°
2026-04-20 21:03 45.64604 9.38052 13787 ft 331 kts 233°
2026-04-20 21:03 45.63157 9.35556 13138 ft 329 kts 233°
2026-04-20 21:04 45.61703 9.33050 12493 ft 327 kts 233°
2026-04-20 21:04 45.60254 9.30554 11854 ft 325 kts 232°
2026-04-20 21:04 45.58818 9.28084 11153 ft 323 kts 232°
2026-04-20 21:04 45.58068 9.26795 10837 ft 322 kts 232°
2026-04-20 21:05 45.56636 9.24334 10387 ft 316 kts 232°
2026-04-20 21:05 45.55263 9.21979 10152 ft 303 kts 232°
2026-04-20 21:05 45.53943 9.19716 10007 ft 289 kts 232°
2026-04-20 21:05 45.52681 9.17554 9769 ft 280 kts 232°
2026-04-20 21:06 45.51457 9.15457 9369 ft 276 kts 231°
2026-04-20 21:06 45.50247 9.13385 8970 ft 268 kts 232°
2026-04-20 21:06 45.49066 9.11365 8575 ft 261 kts 232°
2026-04-20 21:06 45.47915 9.09398 8186 ft 255 kts 232°
2026-04-20 21:07 45.46789 9.07474 7803 ft 250 kts 231°
2026-04-20 21:07 45.45682 9.05584 7420 ft 246 kts 231°
2026-04-20 21:07 45.44625 9.03686 7042 ft 242 kts 241°
2026-04-20 21:07 45.44076 9.01461 6702 ft 237 kts 258°
2026-04-20 21:08 45.43733 8.99193 6398 ft 237 kts 259°
2026-04-20 21:08 45.43404 8.96894 6065 ft 236 kts 259°
2026-04-20 21:08 45.43079 8.94591 5693 ft 234 kts 259°
2026-04-20 21:08 45.42764 8.92348 5345 ft 229 kts 259°
2026-04-20 21:09 45.42455 8.90149 5015 ft 223 kts 259°
2026-04-20 21:09 45.42158 8.88035 4703 ft 218 kts 259°
2026-04-20 21:09 45.41866 8.85944 4382 ft 213 kts 259°
2026-04-20 21:09 45.41601 8.83905 4096 ft 206 kts 266°
2026-04-20 21:10 45.41907 8.81982 3782 ft 199 kts 303°
2026-04-20 21:10 45.42871 8.80643 3533 ft 191 kts 322°
2026-04-20 21:10 45.43948 8.79487 3288 ft 193 kts 323°
2026-04-20 21:10 45.45087 8.78558 3086 ft 190 kts 342°
2026-04-20 21:11 45.46368 8.78070 3065 ft 191 kts 345°
2026-04-20 21:11 45.47664 8.77643 3033 ft 189 kts 348°
2026-04-20 21:11 45.48953 8.77269 3024 ft 188 kts 348°
2026-04-20 21:11 45.50201 8.76921 2968 ft 178 kts 348°
2026-04-20 21:12 45.51396 8.76589 2771 ft 171 kts 348°
2026-04-20 21:12 45.52551 8.76268 2547 ft 168 kts 348°
2026-04-20 21:12 45.53661 8.75959 2338 ft 159 kts 348°
2026-04-20 21:12 45.54712 8.75666 2135 ft 149 kts 348°
2026-04-20 21:13 45.55699 8.75392 1983 ft 137 kts 348°
2026-04-20 21:13 45.56620 8.75136 1716 ft 132 kts 348°
2026-04-20 21:13 45.57527 8.74885 1564 ft 136 kts 348°
2026-04-20 21:13 45.58463 8.74607 1414 ft 139 kts 347°
2026-04-20 21:14 45.59422 8.74341 1228 ft 141 kts 350°
2026-04-20 21:14 45.60396 8.74096 1008 ft 143 kts 348°
2026-04-20 21:14 45.61366 8.73804 829 ft 141 kts 349°
2026-04-20 21:14 45.62317 8.73544 740 ft 131 kts 348°
2026-04-20 21:15 45.63050 8.73339 734 ft 91 kts 349°
2026-04-20 21:15 45.63548 8.73202 739 ft 45 kts 346°
2026-04-20 21:15 45.63772 8.72995 736 ft 33 kts 312°
2026-04-20 21:15 45.63884 8.72768 735 ft 23 kts 304°
2026-04-20 21:16 45.63948 8.72628 735 ft 15 kts 297°
2026-04-20 21:16 45.63946 8.72490 734 ft 14 kts 259°
2026-04-20 21:16 45.63928 8.72355 735 ft 13 kts 259°
2026-04-20 21:16 45.63916 8.72225 736 ft 13 kts 268°
2026-04-20 21:17 45.63913 8.72099 737 ft 13 kts 267°
2026-04-20 21:17 45.63906 8.71975 735 ft 12 kts 261°
2026-04-20 21:17 45.63885 8.71860 736 ft 12 kts 238°
2026-04-20 21:17 45.63811 8.71824 735 ft 12 kts 170°
2026-04-20 21:18 45.63733 8.71844 736 ft 11 kts 169°
2026-04-20 21:18 45.63657 8.71864 734 ft 11 kts 169°
2026-04-20 21:18 45.63583 8.71884 736 ft 11 kts 169°
2026-04-20 21:18 45.63510 8.71904 735 ft 10 kts 169°
2026-04-20 21:19 45.63444 8.71897 735 ft 10 kts 229°
2026-04-20 21:19 45.63425 8.71802 735 ft 10 kts 258°
2026-04-20 21:19 45.63412 8.71707 735 ft 10 kts 259°
2026-04-20 21:20 45.63387 8.71525 734 ft 9 kts 258°
2026-04-20 21:20 45.63375 8.71437 734 ft 9 kts 259°
2026-04-20 21:20 45.63364 8.71352 735 ft 9 kts 259°
2026-04-20 21:20 45.63355 8.71271 735 ft 8 kts 273°
2026-04-20 21:21 45.63392 8.71236 735 ft 6 kts 348°
2026-04-20 21:21 45.63419 8.71229 735 ft 0 kts 349°